Sacramento, CA
on Tuesday, January 15, 2013

Tuesday
Previous Day Next Day
Daily Summary
 ActualAverageRecord
Temperature
Mean Temperature - -  
Max Temperature 50 °F 53 °F 68 °F (2009)
Min Temperature 28 °F 39 °F 21 °F (2007)
Degree Days
Heating Degree Days 26    
Cooling Degree Days 0    
Moisture
Dew Point 27 °F   
Average Humidity 66    
Maximum Humidity 85    
Minimum Humidity 46    
Precipitation
Precipitation 0.00 in 0.12 in 0.61 in (1993)
Month to date precipitation 0.78 1.77  
Year to date precipitation 0.78 1.77  
Since 1 July precipitation 12.07 8.39  
Wind
Wind Speed 1 mph   
Max Wind Speed 6 mph   
Max Gust Speed 12 mph   
Visibility 9 miles   
Events     

Key: T is trace of precipitation, MM is missing value
Source: NWS Daily Summary
Time(PST)TemperatureDew PointHumidity Pressure Visibility Wind DirectionWind SpeedGust SpeedPrecipitationEvents Conditions
12:53 AM 30.9 °F 24.1 °F 76% 30.42 in 10.0 miles SE 4.6 mph - N/A   Clear
1:53 AM 33.1 °F 26.1 °F 75% 30.44 in 10.0 miles Calm Calm - N/A   Clear
2:53 AM 30.9 °F 25.0 °F 79% 30.45 in 10.0 miles Calm Calm - N/A   Clear
4:53 AM 28.9 °F 24.1 °F 82% 30.45 in 10.0 miles Calm Calm - N/A   Clear
5:53 AM 28.9 °F 21.9 °F 75% 30.46 in 10.0 miles Calm Calm - N/A   Clear
6:53 AM 30.0 °F 24.1 °F 79% 30.48 in 10.0 miles Calm Calm - N/A   Clear
7:53 AM 30.0 °F 23.0 °F 75% 30.50 in 10.0 miles Calm Calm - N/A   Clear
8:53 AM 32.0 °F 26.1 °F 79% 30.52 in 10.0 miles Calm Calm - N/A   Clear
9:53 AM 41.0 °F 28.0 °F 60% 30.52 in 10.0 miles Calm Calm - N/A   Clear
10:53 AM 44.1 °F 30.0 °F 58% 30.51 in 10.0 miles Calm Calm - N/A   Clear
11:53 AM 46.0 °F 30.0 °F 54% 30.50 in 10.0 miles Variable 3.5 mph - N/A   Clear
12:53 PM 48.0 °F 30.0 °F 50% 30.47 in 10.0 miles Calm Calm - N/A   Clear
1:53 PM 48.9 °F 28.9 °F 46% 30.45 in 10.0 miles Calm Calm - N/A   Clear
2:53 PM 48.9 °F 28.9 °F 46% 30.44 in 9.0 miles SSW 3.5 mph - N/A   Clear
3:53 PM 48.9 °F 28.9 °F 46% 30.44 in 9.0 miles Calm Calm - N/A   Clear
4:53 PM 48.0 °F 28.9 °F 48% 30.45 in 8.0 miles Calm Calm - N/A   Clear
5:53 PM 43.0 °F 30.0 °F 60% 30.45 in 10.0 miles Calm Calm - N/A   Clear
6:53 PM 39.0 °F 30.0 °F 70% 30.45 in 8.0 miles Calm Calm - N/A   Clear
7:53 PM 37.9 °F 28.9 °F 70% 30.45 in 8.0 miles Calm Calm - N/A   Clear
8:53 PM 35.1 °F 28.9 °F 78% 30.45 in 7.0 miles Calm Calm - N/A   Clear
9:53 PM 35.1 °F 28.9 °F 78% 30.45 in 7.0 miles Calm Calm - N/A   Clear
10:53 PM 34.0 °F 28.9 °F 82% 30.45 in 6.0 miles Calm Calm - N/A   Haze
11:53 PM 33.8 °F 28.4 °F 81% 30.46 in 6.0 miles Calm Calm - N/A   Clear

Astronomy

Sunrise: 07:21 AM (PST) Moon Rise: 09:34 AM (PST) 1 / 15
Sunset: 05:09 PM (PST) Moon Set: 10:00 PM (PST) 1 / 15
Moon Phase
Jan. 15 Jan. 18 Jan. 26 Feb. 03 Feb. 10


Powered by Weather Underground, Inc.